CST,Max TemperatureF,Mean TemperatureF,Min TemperatureF,Max Dew PointF,MeanDew PointF,Min DewpointF,Max Humidity, Mean Humidity, Min Humidity, Max Sea Level PressureIn, Mean Sea Level PressureIn, Min Sea Level PressureIn, Max VisibilityMiles, Mean VisibilityMiles, Min VisibilityMiles, Max Wind SpeedMPH, Mean Wind SpeedMPH, Max Gust SpeedMPH,PrecipitationIn, CloudCover, Events, WindDirDegrees
2012-11-1,44,40,35,34,27,16,81,62,31,30.08,29.98,29.91,10,10,10,18,9,24,0.00,7,,323
2012-11-2,35,32,30,28,26,23,80,73,65,30.23,30.16,30.08,10,10,10,15,9,20,0.00,1,,37
2012-11-3,39,34,30,32,28,25,86,74,65,30.28,30.26,30.23,10,10,10,14,8,,0.00,5,,94
2012-11-4,39,36,32,32,28,27,81,71,61,30.29,30.26,30.23,10,10,10,20,8,,0.00,5,,100
2012-11-5,39,36,32,34,29,27,81,74,61,30.27,30.17,29.91,10,10,10,15,9,,0.00,6,,98
2012-11-6,42,38,35,37,35,34,100,87,70,29.95,29.81,29.73,10,9,3,16,8,18,0.00,8,Rain,219
2012-11-7,42,40,37,36,35,34,93,84,76,30.09,30.05,29.95,10,10,10,8,4,,0.00,7,,246
2012-11-8,51,43,35,39,36,32,93,76,54,30.07,29.98,29.89,10,10,10,17,7,,0.00,4,Rain,218
2012-11-9,44,42,39,39,36,34,87,85,76,30.16,30.13,30.08,10,10,10,31,16,34,0.00,8,,57
2012-11-10,42,38,35,41,38,34,100,90,81,30.10,29.79,29.49,10,7,2,33,28,38,0.00,8,Rain-Thunderstorm,62
2012-11-11,46,36,26,45,32,18,93,83,69,29.83,29.66,29.48,10,8,1,21,14,26,0.00,8,Rain-Snow-Thunderstorm,256
2012-11-12,28,24,21,19,18,16,86,73,64,30.21,29.95,29.82,10,9,4,22,15,29,0.00,8,Snow,241
2012-11-13,37,30,23,27,20,18,86,66,48,30.35,30.29,30.22,10,10,10,18,10,21,0.00,4,,221
2012-11-14,42,37,30,36,30,25,93,79,61,30.28,30.22,30.13,10,10,4,7,1,,0.00,4,,48
2012-11-15,44,37,30,34,21,3,93,60,18,30.49,30.25,30.10,10,10,7,22,6,23,0.00,2,,296
2012-11-16,37,29,21,30,23,16,81,71,55,30.52,30.45,30.35,10,10,10,12,6,,0.00,0,,101
2012-11-17,53,42,30,41,33,25,93,73,51,30.34,30.25,30.20,10,10,5,14,3,17,0.00,2,Rain,178
2012-11-18,55,48,42,41,36,32,93,69,41,30.22,30.14,30.08,10,9,4,13,4,12,0.00,4,Rain,135
2012-11-19,44,40,35,43,38,34,93,89,81,30.10,30.05,30.02,10,8,3,8,2,,0.00,3,Thunderstorm,14
2012-11-20,42,36,30,37,33,28,100,86,70,30.17,30.11,30.05,10,8,0,10,5,,0.00,1,Fog,29
2012-11-21,41,36,32,39,36,30,100,93,87,30.04,29.89,29.68,5,2,0,13,2,17,0.00,5,Fog,43
2012-11-22,51,40,28,46,35,25,100,88,62,29.78,29.65,29.56,10,4,0,23,9,29,0.00,6,Fog-Rain,275
2012-11-23,28,22,17,27,16,10,93,73,64,30.35,30.17,29.78,10,10,5,25,18,36,0.00,8,Snow,313
2012-11-24,23,16,8,19,13,7,93,80,63,30.33,30.10,29.81,10,9,1,12,7,,0.00,4,Snow,229
2012-11-25,28,22,15,21,18,5,86,74,62,30.16,29.92,29.79,10,10,4,23,11,28,0.00,7,Snow,272
2012-11-26,19,14,8,10,5,1,73,68,54,30.37,30.31,30.16,10,10,10,17,11,18,0.00,2,,258
2012-11-27,28,24,19,23,17,10,86,76,68,30.26,30.15,30.08,10,9,2,16,10,20,0.00,7,Snow,234
2012-11-28,28,24,19,23,17,12,80,72,63,30.30,30.20,30.09,10,10,1,22,13,28,0.00,4,,239
2012-11-29,32,28,24,28,26,21,93,85,80,30.25,30.19,30.11,10,10,10,29,14,36,0.00,6,,67
2012-11-30,33,32,30,28,26,25,86,82,75,30.26,30.20,30.10,10,10,10,24,16,28,0.00,8,,93